AFR52Y LFPG-EGLL

Flight info

Callsign AFR52Y
Flight time 0h 44m
Altitude 24000
Route OPALE6G/09R OPALE DCT KESAX DCT DIMAL DCT ALESO
Aircraft B722/M-SDFGHRWY/C

Departure

Time 2026-05-08 20:07
Airport Charles de Gaulle International Airport (LFPG)

Arrival

Time 2026-05-08 20:52
Airport London Heathrow Airport (EGLL)
Time Latitude Longitude Altitude Speed Heading
2026-05-08 19:41 49.00673 2.57750 358 ft 0 kts 121°
2026-05-08 19:50 49.00674 2.57747 358 ft 2 kts 121°
2026-05-08 19:51 49.00683 2.57724 358 ft 3 kts 120°
2026-05-08 19:51 49.00693 2.57692 358 ft 2 kts 107°
2026-05-08 19:51 49.00690 2.57677 364 ft 2 kts 40°
2026-05-08 19:51 49.00689 2.57675 358 ft 0 kts 33°
2026-05-08 19:54 49.00704 2.57675 361 ft 8 kts 349°
2026-05-08 19:54 49.00761 2.57629 358 ft 11 kts 308°
2026-05-08 19:54 49.00808 2.57576 359 ft 0 kts 348°
2026-05-08 19:55 49.00811 2.57575 358 ft 0 kts 348°
2026-05-08 19:55 49.00812 2.57574 358 ft 0 kts 348°
2026-05-08 19:56 49.00851 2.57554 360 ft 13 kts 322°
2026-05-08 19:56 49.00869 2.57372 358 ft 20 kts 264°
2026-05-08 19:56 49.00856 2.57137 358 ft 25 kts 265°
2026-05-08 19:57 49.00842 2.56854 358 ft 28 kts 265°
2026-05-08 19:57 49.00825 2.56547 358 ft 30 kts 265°
2026-05-08 19:57 49.00795 2.56224 358 ft 31 kts 262°
2026-05-08 19:57 49.00766 2.55899 362 ft 28 kts 262°
2026-05-08 19:58 49.00741 2.55610 362 ft 21 kts 263°
2026-05-08 19:58 49.00729 2.55405 363 ft 17 kts 284°
2026-05-08 19:58 49.00809 2.55313 361 ft 9 kts 345°
2026-05-08 19:58 49.00821 2.55309 359 ft 0 kts 345°
2026-05-08 19:59 49.00836 2.55303 360 ft 9 kts 346°
2026-05-08 19:59 49.00951 2.55254 362 ft 25 kts 344°
2026-05-08 19:59 49.01145 2.55171 358 ft 27 kts 346°
2026-05-08 19:59 49.01309 2.55213 359 ft 23 kts 12°
2026-05-08 20:00 49.01458 2.55178 361 ft 25 kts 350°
2026-05-08 20:00 49.01644 2.55153 358 ft 27 kts 356°
2026-05-08 20:00 49.01791 2.55135 358 ft 13 kts 355°
2026-05-08 20:00 49.01857 2.55059 359 ft 14 kts 279°
2026-05-08 20:01 49.01851 2.54875 358 ft 21 kts 264°
2026-05-08 20:01 49.01836 2.54617 358 ft 27 kts 265°
2026-05-08 20:01 49.01820 2.54300 360 ft 31 kts 265°
2026-05-08 20:01 49.01806 2.54019 358 ft 26 kts 265°
2026-05-08 20:02 49.01790 2.53739 364 ft 27 kts 265°
2026-05-08 20:02 49.01773 2.53443 363 ft 28 kts 264°
2026-05-08 20:02 49.01757 2.53146 365 ft 29 kts 266°
2026-05-08 20:02 49.01741 2.52831 364 ft 30 kts 265°
2026-05-08 20:03 49.01726 2.52557 359 ft 25 kts 265°
2026-05-08 20:03 49.01711 2.52287 359 ft 25 kts 264°
2026-05-08 20:03 49.01756 2.52142 358 ft 17 kts 347°
2026-05-08 20:03 49.01851 2.52129 358 ft 11 kts 357°
2026-05-08 20:04 49.01931 2.52117 364 ft 6 kts 356°
2026-05-08 20:04 49.01934 2.52117 357 ft 0 kts 356°
2026-05-08 20:05 49.01946 2.52116 357 ft 8 kts 356°
2026-05-08 20:05 49.01949 2.52115 357 ft 0 kts 356°
2026-05-08 20:06 49.02004 2.52110 361 ft 13 kts 356°
2026-05-08 20:06 49.02097 2.52137 361 ft 15 kts 54°
2026-05-08 20:06 49.02120 2.52374 363 ft 45 kts 85°
2026-05-08 20:07 49.02163 2.53195 365 ft 108 kts 86°
2026-05-08 20:07 49.02245 2.54573 391 ft 149 kts 91°
2026-05-08 20:07 49.02280 2.56167 943 ft 148 kts 89°
2026-05-08 20:07 49.02283 2.57749 1537 ft 152 kts 86°
2026-05-08 20:08 49.02567 2.59275 2099 ft 151 kts 71°
2026-05-08 20:08 49.02719 2.60828 2634 ft 146 kts 89°
2026-05-08 20:08 49.02754 2.62336 3146 ft 139 kts 87°
2026-05-08 20:08 49.02796 2.63807 3516 ft 146 kts 88°
2026-05-08 20:09 49.02836 2.65495 3768 ft 168 kts 88°
2026-05-08 20:09 49.02907 2.67352 4183 ft 185 kts 86°
2026-05-08 20:09 49.03021 2.69389 4666 ft 201 kts 86°
2026-05-08 20:09 49.03147 2.71647 5088 ft 223 kts 85°
2026-05-08 20:10 49.03634 2.73943 5576 ft 244 kts 57°
2026-05-08 20:10 49.04906 2.75806 6061 ft 267 kts 29°
2026-05-08 20:10 49.06767 2.76519 6533 ft 290 kts 358°
2026-05-08 20:10 49.08792 2.75763 7011 ft 309 kts 336°
2026-05-08 20:11 49.10699 2.74130 7472 ft 325 kts 325°
2026-05-08 20:11 49.12559 2.72187 8260 ft 316 kts 324°
2026-05-08 20:11 49.14365 2.70457 9426 ft 283 kts 328°
2026-05-08 20:11 49.16056 2.69059 9980 ft 286 kts 329°
2026-05-08 20:12 49.17857 2.67531 9996 ft 301 kts 328°
2026-05-08 20:12 49.19660 2.65929 9993 ft 299 kts 327°
2026-05-08 20:12 49.21461 2.64323 9996 ft 299 kts 328°
2026-05-08 20:12 49.23243 2.62685 10000 ft 297 kts 325°
2026-05-08 20:13 49.24745 2.61062 10201 ft 290 kts 321°
2026-05-08 20:13 49.26376 2.59162 10893 ft 299 kts 322°
2026-05-08 20:13 49.28076 2.57285 11565 ft 305 kts 323°
2026-05-08 20:13 49.29863 2.55373 12227 ft 319 kts 323°
2026-05-08 20:14 49.31717 2.53353 12905 ft 333 kts 323°
2026-05-08 20:14 49.33614 2.51255 13595 ft 346 kts 322°
2026-05-08 20:14 49.35606 2.49059 14246 ft 358 kts 323°
2026-05-08 20:14 49.37668 2.46803 14871 ft 369 kts 323°
2026-05-08 20:15 49.39774 2.44494 15510 ft 379 kts 323°
2026-05-08 20:15 49.41931 2.42113 16146 ft 382 kts 323°
2026-05-08 20:15 49.44106 2.39711 16793 ft 386 kts 323°
2026-05-08 20:15 49.46308 2.37283 17453 ft 390 kts 323°
2026-05-08 20:16 49.48501 2.34863 18117 ft 394 kts 323°
2026-05-08 20:16 49.50741 2.32382 18754 ft 397 kts 324°
2026-05-08 20:16 49.52996 2.29882 19333 ft 399 kts 324°
2026-05-08 20:16 49.55249 2.27386 19939 ft 400 kts 324°
2026-05-08 20:17 49.57507 2.24877 20559 ft 401 kts 324°
2026-05-08 20:17 49.59779 2.22358 21184 ft 403 kts 324°
2026-05-08 20:17 49.62031 2.19841 21819 ft 405 kts 324°
2026-05-08 20:17 49.64319 2.17269 22465 ft 406 kts 324°
2026-05-08 20:18 49.66638 2.14712 23154 ft 408 kts 324°
2026-05-08 20:18 49.68947 2.12157 23560 ft 416 kts 324°
2026-05-08 20:18 49.71319 2.09489 23855 ft 425 kts 324°
2026-05-08 20:18 49.73733 2.06770 24084 ft 436 kts 324°
2026-05-08 20:19 49.76216 2.03994 24085 ft 450 kts 324°
2026-05-08 20:19 49.78792 2.01116 24084 ft 458 kts 324°
2026-05-08 20:19 49.81370 1.98214 24090 ft 456 kts 324°
2026-05-08 20:19 49.83951 1.95301 24088 ft 456 kts 324°
2026-05-08 20:20 49.86490 1.92442 24091 ft 457 kts 324°
2026-05-08 20:20 49.89072 1.89535 24092 ft 457 kts 324°
2026-05-08 20:20 49.91618 1.86598 24092 ft 457 kts 322°
2026-05-08 20:20 49.94105 1.83506 24090 ft 457 kts 320°
2026-05-08 20:21 49.96528 1.80392 24088 ft 460 kts 321°
2026-05-08 20:21 49.99047 1.77286 24091 ft 460 kts 322°
2026-05-08 20:21 50.01590 1.74235 24091 ft 460 kts 322°
2026-05-08 20:21 50.04079 1.71169 24091 ft 460 kts 321°
2026-05-08 20:22 50.06607 1.68084 24094 ft 460 kts 325°
2026-05-08 20:22 50.09385 1.65577 24091 ft 461 kts 332°
2026-05-08 20:22 50.12262 1.63477 24093 ft 460 kts 336°
2026-05-08 20:22 50.14230 1.62210 24097 ft 460 kts 337°
2026-05-08 20:23 50.18167 1.59510 24092 ft 461 kts 334°
2026-05-08 20:23 50.21037 1.57273 24099 ft 461 kts 333°
2026-05-08 20:23 50.23887 1.55125 24100 ft 461 kts 335°
2026-05-08 20:23 50.26828 1.53072 24102 ft 461 kts 335°
2026-05-08 20:24 50.29765 1.50995 24102 ft 461 kts 334°
2026-05-08 20:24 50.32672 1.48818 24105 ft 461 kts 334°
2026-05-08 20:24 50.35527 1.46678 24110 ft 461 kts 334°
2026-05-08 20:24 50.38457 1.44560 24108 ft 461 kts 335°
2026-05-08 20:25 50.41374 1.42459 24116 ft 461 kts 334°
2026-05-08 20:25 50.44284 1.40306 24107 ft 462 kts 334°
2026-05-08 20:25 50.47152 1.38133 24106 ft 462 kts 332°
2026-05-08 20:25 50.49834 1.35331 24092 ft 462 kts 320°
2026-05-08 20:26 50.52195 1.31892 24098 ft 458 kts 314°
2026-05-08 20:26 50.54336 1.28245 24104 ft 459 kts 310°
2026-05-08 20:26 50.56425 1.24379 24104 ft 463 kts 310°
2026-05-08 20:26 50.58584 1.20688 24108 ft 459 kts 314°
2026-05-08 20:27 50.60901 1.17216 24114 ft 463 kts 317°
2026-05-08 20:27 50.63255 1.13727 24120 ft 460 kts 315°
2026-05-08 20:27 50.65490 1.10113 24113 ft 462 kts 313°
2026-05-08 20:27 50.67682 1.06472 24121 ft 461 kts 314°
2026-05-08 20:28 50.69973 1.02865 24123 ft 464 kts 315°
2026-05-08 20:28 50.72272 0.99338 23892 ft 467 kts 315°
2026-05-08 20:28 50.74551 0.95719 23246 ft 457 kts 313°
2026-05-08 20:28 50.76763 0.92114 22552 ft 457 kts 313°
2026-05-08 20:29 50.78978 0.88561 21900 ft 456 kts 314°
2026-05-08 20:29 50.81219 0.85032 21255 ft 453 kts 314°
2026-05-08 20:29 50.83447 0.81494 20642 ft 450 kts 313°
2026-05-08 20:29 50.85614 0.77990 20204 ft 448 kts 313°
2026-05-08 20:30 50.87793 0.74478 19834 ft 439 kts 313°
2026-05-08 20:30 50.89889 0.71136 19466 ft 417 kts 313°
2026-05-08 20:30 50.91223 0.69004 19219 ft 404 kts 313°
2026-05-08 20:30 50.93775 0.64881 18770 ft 383 kts 313°
2026-05-08 20:31 50.95618 0.61901 18518 ft 378 kts 313°
2026-05-08 20:31 50.96841 0.59927 18346 ft 377 kts 313°
2026-05-08 20:31 50.98677 0.56967 18145 ft 374 kts 313°
2026-05-08 20:31 51.01108 0.53035 18153 ft 376 kts 313°
2026-05-08 20:32 51.02345 0.51030 18162 ft 376 kts 313°
2026-05-08 20:32 51.04157 0.48090 18179 ft 376 kts 313°
2026-05-08 20:32 51.06006 0.45091 18175 ft 377 kts 312°
2026-05-08 20:32 51.07816 0.42201 18178 ft 364 kts 314°
2026-05-08 20:33 51.09626 0.39459 17692 ft 355 kts 315°
2026-05-08 20:33 51.11409 0.36810 16876 ft 344 kts 315°
2026-05-08 20:33 51.13127 0.34194 16089 ft 341 kts 314°
2026-05-08 20:33 51.14647 0.31839 15415 ft 341 kts 314°
2026-05-08 20:34 51.16338 0.29242 14682 ft 330 kts 315°
2026-05-08 20:34 51.17916 0.26844 14292 ft 309 kts 315°
2026-05-08 20:34 51.21017 0.22083 12368 ft 305 kts 314°
2026-05-08 20:35 51.22524 0.19768 11456 ft 301 kts 314°
2026-05-08 20:35 51.24025 0.17464 10560 ft 298 kts 314°
2026-05-08 20:35 51.25530 0.15147 9656 ft 304 kts 314°
2026-05-08 20:35 51.27056 0.12793 8707 ft 311 kts 315°
2026-05-08 20:36 51.28633 0.10364 7775 ft 304 kts 315°
2026-05-08 20:36 51.30110 0.08088 7153 ft 291 kts 315°
2026-05-08 20:36 51.31489 0.05952 7115 ft 259 kts 315°
2026-05-08 20:36 51.32561 0.03789 7096 ft 243 kts 297°
2026-05-08 20:37 51.33162 0.01302 7112 ft 243 kts 282°
2026-05-08 20:37 51.33408 -0.01381 7121 ft 243 kts 274°
2026-05-08 20:37 51.33515 -0.04089 7128 ft 243 kts 272°
2026-05-08 20:37 51.33633 -0.06794 7120 ft 244 kts 274°
2026-05-08 20:38 51.33785 -0.09497 7123 ft 244 kts 274°
2026-05-08 20:38 51.33943 -0.12211 7131 ft 245 kts 274°
2026-05-08 20:38 51.34090 -0.14930 7108 ft 245 kts 273°
2026-05-08 20:38 51.34223 -0.17648 7111 ft 245 kts 273°
2026-05-08 20:39 51.34364 -0.20356 7122 ft 245 kts 274°
2026-05-08 20:39 51.34508 -0.23041 7123 ft 245 kts 274°
2026-05-08 20:39 51.34651 -0.25773 7121 ft 245 kts 274°
2026-05-08 20:39 51.34790 -0.28460 7051 ft 247 kts 274°
2026-05-08 20:40 51.34933 -0.31225 6607 ft 250 kts 274°
2026-05-08 20:40 51.35076 -0.34004 6158 ft 250 kts 274°
2026-05-08 20:40 51.35210 -0.36728 6116 ft 242 kts 273°
2026-05-08 20:40 51.35340 -0.39421 6117 ft 243 kts 273°
2026-05-08 20:41 51.35477 -0.42118 6120 ft 243 kts 274°
2026-05-08 20:41 51.35614 -0.44779 6122 ft 243 kts 274°
2026-05-08 20:41 51.35757 -0.47483 6124 ft 243 kts 274°
2026-05-08 20:41 51.35904 -0.50184 6125 ft 243 kts 274°
2026-05-08 20:42 51.36051 -0.52881 6025 ft 246 kts 274°
2026-05-08 20:42 51.36200 -0.55628 5664 ft 247 kts 274°
2026-05-08 20:42 51.36345 -0.58367 5308 ft 246 kts 274°
2026-05-08 20:42 51.36484 -0.61070 4959 ft 246 kts 274°
2026-05-08 20:43 51.36625 -0.63804 4596 ft 246 kts 274°
2026-05-08 20:43 51.36766 -0.66531 4236 ft 244 kts 274°
2026-05-08 20:43 51.36898 -0.69050 4088 ft 240 kts 274°
2026-05-08 20:43 51.37036 -0.71689 3951 ft 238 kts 274°
2026-05-08 20:44 51.37175 -0.74336 3830 ft 238 kts 274°
2026-05-08 20:44 51.37313 -0.76980 3687 ft 238 kts 274°
2026-05-08 20:44 51.37603 -0.79546 3523 ft 238 kts 292°
2026-05-08 20:44 51.38424 -0.81844 3407 ft 237 kts 310°
2026-05-08 20:45 51.39709 -0.83336 3250 ft 222 kts 335°
2026-05-08 20:45 51.41101 -0.84273 3145 ft 218 kts 339°
2026-05-08 20:45 51.42504 -0.85200 3005 ft 218 kts 339°
2026-05-08 20:45 51.43950 -0.85868 2845 ft 216 kts 356°
2026-05-08 20:46 51.45439 -0.85765 2667 ft 213 kts 22°
2026-05-08 20:46 51.46640 -0.84493 2527 ft 207 kts 45°
2026-05-08 20:46 51.47612 -0.82811 2504 ft 203 kts 64°
2026-05-08 20:46 51.47772 -0.80668 2533 ft 190 kts 103°
2026-05-08 20:47 51.47567 -0.78630 2513 ft 182 kts 91°
2026-05-08 20:47 51.47647 -0.76629 2513 ft 181 kts 87°
2026-05-08 20:47 51.47670 -0.74621 2517 ft 179 kts 92°
2026-05-08 20:47 51.47651 -0.72611 2518 ft 180 kts 90°
2026-05-08 20:48 51.47675 -0.70607 2525 ft 179 kts 90°
2026-05-08 20:48 51.47671 -0.68680 2525 ft 170 kts 91°
2026-05-08 20:48 51.47686 -0.66807 2361 ft 166 kts 90°
2026-05-08 20:48 51.47687 -0.65050 2127 ft 148 kts 92°
2026-05-08 20:49 51.47698 -0.63484 1912 ft 134 kts 90°
2026-05-08 20:49 51.47697 -0.62017 1720 ft 130 kts 92°
2026-05-08 20:49 51.47707 -0.60575 1590 ft 131 kts 90°
2026-05-08 20:49 51.47708 -0.59137 1457 ft 128 kts 92°
2026-05-08 20:50 51.47716 -0.57704 1272 ft 128 kts 89°
2026-05-08 20:50 51.47720 -0.56271 1094 ft 129 kts 92°
2026-05-08 20:50 51.47719 -0.54833 910 ft 128 kts 90°
2026-05-08 20:50 51.47725 -0.53387 737 ft 132 kts 90°
2026-05-08 20:51 51.47729 -0.51897 562 ft 135 kts 89°
2026-05-08 20:51 51.47744 -0.50371 389 ft 138 kts 90°
2026-05-08 20:51 51.47759 -0.48864 172 ft 127 kts 90°
2026-05-08 20:51 51.47760 -0.47524 89 ft 108 kts 91°
2026-05-08 20:52 51.47758 -0.46628 96 ft 56 kts 89°
2026-05-08 20:52 51.47752 -0.46233 92 ft 19 kts 109°
2026-05-08 20:52 51.47669 -0.46104 90 ft 14 kts 146°
2026-05-08 20:52 51.47600 -0.45984 91 ft 17 kts 101°
2026-05-08 20:53 51.47593 -0.45803 91 ft 11 kts 96°
2026-05-08 20:53 51.47537 -0.45728 93 ft 13 kts 152°
2026-05-08 20:53 51.47508 -0.45596 93 ft 7 kts 90°
2026-05-08 20:53 51.47507 -0.45542 93 ft 8 kts 90°
2026-05-08 20:54 51.47507 -0.45426 93 ft 13 kts 90°
2026-05-08 20:54 51.47508 -0.45248 93 ft 19 kts 89°
2026-05-08 20:54 51.47510 -0.45011 93 ft 24 kts 90°
2026-05-08 20:54 51.47510 -0.44715 93 ft 28 kts 90°
2026-05-08 20:55 51.47503 -0.44397 89 ft 29 kts 89°
2026-05-08 20:55 51.47503 -0.44117 92 ft 14 kts 103°
2026-05-08 20:55 51.47419 -0.44058 89 ft 18 kts 180°
2026-05-08 20:55 51.47259 -0.44058 89 ft 25 kts 179°
2026-05-08 20:56 51.47077 -0.44055 92 ft 27 kts 179°
2026-05-08 20:56 51.46880 -0.44054 91 ft 26 kts 179°
2026-05-08 20:56 51.46762 -0.44054 93 ft 18 kts 180°
2026-05-08 20:56 51.46624 -0.44051 89 ft 22 kts 179°
2026-05-08 20:57 51.46472 -0.44057 91 ft 11 kts 198°
2026-05-08 20:57 51.46393 -0.44126 92 ft 15 kts 209°
2026-05-08 20:57 51.46319 -0.44195 90 ft 10 kts 207°
2026-05-08 20:57 51.46262 -0.44236 89 ft 7 kts 204°
2026-05-08 20:58 51.46239 -0.44294 92 ft 8 kts 275°
2026-05-08 20:58 51.46254 -0.44364 93 ft 3 kts 290°
2026-05-08 20:58 51.46256 -0.44373 89 ft 0 kts 290°